Regional Weather Roundup
Issued by NWS

Home | Current Version | Previous Version | Text Only | Print | Product List | Glossary On
Versions: 1 2 3 4 5 6 7 8 9 10 11 12 13 14 15 16 17 18 19 20 21 22 23 24 25 26 27 28 29 30 31 32 33 34 35 36 37 38 39 40 41 42 43 44 45 46 47 48 49 50
000
ASUS43 KMKX 191021
RWRWI

WISCONSIN REGIONAL WEATHER ROUNDUP
NATIONAL WEATHER SERVICE MILWAUKEE/SULLIVAN WI
400 AM CST FRI DEC 19 2014

NOTE: "FAIR" INDICATES FEW OR NO CLOUDS BELOW 12,000 FEET WITH NO
SIGNIFICANT WEATHER AND/OR OBSTRUCTIONS TO VISIBILITY.

WIZ001-002-006>008-014>016-023>028-191100-
NORTHWEST WISCONSIN

CITY           SKY/WX    TMP DP  RH WIND       PRES   REMARKS
SUPERIOR ARPT  CLOUDY    23  20  89 SW5       30.27F WCI  17
ASHLAND        CLOUDY    22  19  89 CALM      30.27F
HAYWARD        CLOUDY    21  18  88 SW8       30.25S WCI  11
SIREN          CLOUDY    22  19  87 S5        30.26S WCI  16
CUMBERLAND     CLOUDY    21  19  93 S5        30.24F WCI  15
RICE LAKE      CLOUDY    23  19  85 S5        30.27F WCI  17
CHETEK         CLOUDY    23  20  89 S5        30.26F WCI  16
LADYSMITH      CLOUDY    24  22  91 SW3       30.26F
EAU CLAIRE     CLOUDY    24  18  77 W5        30.26F WCI  18
MENOMONIE      CLOUDY    24  20  84 S6        30.27F WCI  17
NEW RICHMOND   CLOUDY    22  19  90 SW5       30.27S WCI  16
OSCEOLA        CLOUDY    23  19  84 S3        30.30S
$$

WIZ003>005-009-010-017-018-191100-
NORTH CENTRAL WISCONSIN

CITY           SKY/WX    TMP DP  RH WIND       PRES   REMARKS
MANITOWISH WTR CLOUDY     9   7  92 CALM      30.23S
ARBOR VITAE    CLOUDY    11   7  87 CALM      30.22F FOG
WOODRUFF       CLOUDY    11   7  87 CALM      30.22F FOG
RHINELANDER    CLOUDY     2  -1  88 CALM      30.23S
EAGLE RIVER    LGT SNOW   2  -3  81 CALM      30.22F
LAND O LAKES   CLOUDY    -4  -7  84 CALM      30.23S
PHILLIPS       CLOUDY    17  15  93 CALM      30.22F
TOMAHAWK       MOCLDY     6   4  89 CALM      30.24F
MEDFORD        CLOUDY    21  19  92 CALM      30.23S
MERRILL        PTCLDY    11   8  91 CALM      30.25S
$$

WIZ029-030-035-036-043>047-191100-
CENTRAL WISCONSIN

CITY           SKY/WX    TMP DP  RH WIND       PRES   REMARKS
WAUSAU         PTCLDY    16  13  88 N3        30.24S
MOSINEE        PTCLDY    18  18 100 N5        30.26R WCI  11
MARSHFIELD     CLOUDY    24  20  84 CALM      30.25S
STEVENS POINT  PTCLDY    11   8  89 CALM      30.27R
WAUPACA        CLEAR     17  15  88 W3        30.28S
WAUTOMA        FAIR      16  12  86 CALM      30.28S
WISC RAPIDS    CLOUDY    22  19  89 CALM      30.28S
CAMP DOUGLAS   CLOUDY    23  23 100 SW6       30.27S WCI  16
$$

WIZ011>013-019>022-031-037>040-048>050-191100-
NORTHEAST WISCONSIN

CITY           SKY/WX    TMP DP  RH WIND       PRES   REMARKS
ANTIGO         CLEAR      9   8  92 CALM      30.23F
SHAWANO        PTCLDY    16  13  88 CALM      30.28F
OCONTO         PTCLDY    14  14  98 CALM      30.28S
STURGEON BAY   CLEAR     21  19  93 N3        30.28S
GREEN BAY      PTCLDY    18  15  88 CALM      30.28S
MANITOWOC      CLOUDY    26  22  84 N6        30.27S WCI  19
APPLETON       CLEAR     18  18 100 CALM      30.27S
CLINTONVILLE   CLEAR     18  14  86 CALM      30.27S
OSHKOSH        CLEAR     18  14  84 CALM      30.26F
$$

WIZ032>034-041-042-053>061-191100-
SOUTHWEST WISCONSIN

CITY           SKY/WX    TMP DP  RH WIND       PRES   REMARKS
LA CROSSE      CLOUDY    25  17  72 SW3       30.30S
SPARTA         CLOUDY    24  20  83 CALM      30.29F
VIROQUA        CLOUDY    23  19  87 CALM      30.25F
BOSCOBEL       CLOUDY    26  19  74 CALM      30.30F
PRAIRIE DU CHI CLOUDY    26  18  72 CALM      30.30S
PLATTEVILLE    CLOUDY    24  20  82 CALM      30.29S
$$

WIZ056-057-062-063-064-067-068-191100-
SOUTH CENTRAL WISCONSIN

CITY           SKY/WX    TMP DP  RH WIND       PRES   REMARKS
REEDSBURG      CLOUDY    24  20  86 W3        30.27S
BARABOO/DELLS  CLOUDY    25  20  82 CALM      30.27S
LONE ROCK      CLOUDY    28  19  69 NW3       30.30S
MINERAL POINT  CLOUDY    27  21  80 W3        30.26S
MADISON        CLOUDY    26  20  77 CALM      30.27S
MIDDLETON      CLOUDY    27  21  78 CALM      30.28S
WATERTOWN      CLOUDY    25  23  91 CALM      30.27S
MONROE         CLOUDY    27  23  86 SW3       30.26S
JANESVILLE     CLOUDY    28  23  80 NW5       30.28S WCI  23
$$

WIZ051-052-058>065-066-070>072-191100-
SOUTHEAST WISCONSIN

CITY           SKY/WX    TMP DP  RH WIND       PRES   REMARKS
MILWAUKEE      CLOUDY    28  19  69 NW7       30.27S WCI  21
WAUKESHA       CLOUDY    25  19  80 W7        30.28S WCI  17
MILWAUKEE/TIMM CLOUDY    27  19  74 NW5       30.28S WCI  21
RACINE         CLOUDY    27  20  75 NW6       30.28S WCI  20
BURLINGTON     CLOUDY    25  20  83 W5        30.27F WCI  19
KENOSHA        CLOUDY    27  21  78 NW7       30.27S WCI  19
FOND DU LAC    CLEAR     17  13  84 S3        30.27F
SHEBOYGAN      CLOUDY    22  18  85 NW7       30.26S WCI  13
WEST BEND      CLEAR     19  16  86 CALM      30.26F
JUNEAU         FAIR      20  18  92 CALM      30.27F
$$

LSZ147-162-191100-
LAKE SUPERIOR

STATION/POSITION TIME  TEMP    WIND        PRES    WAVE
                       AIR SEA DIR/SP/G            HT/PER
                 (UTC) (F)     (DEG/KT/KT) (MB)    (FT/S)
DEVILS ISLAND    1000   24     200/ 11/ 12 1026.4F
PORT WING        0900   23     190/  3/  4 1025.4
SAXON HARBOR     0900   15      CALM  /  3 1025.4F
$$

LMZ867-665-643>646-191100-
LAKE MICHIGAN

STATION/POSITION TIME  TEMP    WIND        PRES    WAVE
                       AIR SEA DIR/SP/G            HT/PER
                 (UTC) (F)     (DEG/KT/KT) (MB)    (FT/S)
CHAMBERS ISLAND  0900   23     290/  3/  7 1025.4S
NORTHPORT PIER   0904   27     340/  6/  8 1025.1R
SISTER BAY       0943             CALM       N/A
ALGOMA LAKESHORE 0814          330/  7/  8   N/A
KEWAUNEE LAKESHO 0900   24     290/  4/  7 1024.0R
SHEBOYGAN LAKESH 1000   24 34  290/  9/ 10 1026.0S
PORT WASHINGTON  0940   24     290/  6/ 10 1025.7F
MILWAUKEE LAKESH 1000   27     300/  6/  8   N/A
KENOSHA   LAKESH 1000   27     300/  8/ 11 1025.1S
$$

TC  - TEMPERATURE IN CELSIUS
VSB - VISIBILITY IN STATUTE MILES
WCI - WIND CHILL INDEX
HX  - HEAT INDEX



USA.gov is the U.S. government's official web portal to all federal, state and local government web resources and services.